GFSCGP_700_spd_096.txt.gz
Wind_Speed
16 16 21 22 22 20 19 19 22 13 24 14 17 16 17 19 19 26 31 28 28 26 22 21 21 20 17 17 16 13 12 12 10 11 10 13 12 7 6 5 5 10 8 7
13 22 17 18 19 25 24 22 20 12 11 11 13 16 14 21 19 22 27 31 29 28 25 22 22 22 18 18 17 16 13 12 11 10 10 14 7 10 5 7 8 9 7 9
21 14 19 18 20 23 25 22 22 23 17 15 17 17 29 27 22 18 14 24 24 33 31 24 23 22 22 19 19 17 15 14 11 11 11 15 12 10 11 10 9 9 7 8
20 16 19 19 21 21 23 22 18 19 21 19 20 21 32 32 27 21 19 17 23 28 25 23 25 24 23 18 20 19 18 17 13 12 14 10 9 11 5 6 10 9 7 8
21 20 15 22 21 20 23 20 12 15 19 19 19 14 20 25 26 16 24 24 23 22 30 27 26 19 19 15 17 21 20 19 16 12 11 16 13 9 14 12 14 10 7 6
18 17 17 20 20 17 22 14 19 12 19 18 15 21 20 30 21 18 19 23 25 17 27 30 24 21 23 18 12 21 22 20 18 16 15 17 15 12 11 7 3 7 7 6
17 18 19 17 20 19 20 17 15 11 14 10 21 16 13 9 11 12 21 23 21 16 28 27 28 27 25 25 14 18 21 20 18 18 17 17 14 12 11 9 9 4 4 7
20 19 17 17 24 22 23 20 17 14 11 14 21 16 14 16 13 10 11 17 20 17 17 34 27 30 28 22 21 10 19 18 17 17 17 17 16 14 12 9 9 10 6 5
18 21 17 23 22 18 26 26 25 23 25 22 15 12 14 14 15 18 15 16 23 17 28 20 20 34 24 23 29 22 15 19 17 16 16 14 14 14 13 13 12 10 10 9
12 21 25 18 17 17 19 24 27 31 13 14 17 27 25 19 21 24 19 19 25 17 25 22 33 37 30 36 24 25 19 20 19 18 16 15 14 13 13 12 9 7 12 13
9 11 15 16 24 18 17 19 23 28 26 9 9 1 24 26 22 23 21 25 29 30 19 6 18 28 39 26 34 27 25 23 24 21 20 19 17 15 14 13 11 10 12 10
7 7 18 18 15 25 19 22 21 22 27 12 14 5 18 23 25 22 24 25 27 27 28 25 20 13 16 19 15 40 36 30 24 27 23 22 20 19 19 16 14 14 12 14
4 9 8 16 11 15 16 22 24 27 27 14 15 11 15 14 16 19 20 23 21 17 19 21 23 24 15 15 17 17 17 29 17 21 26 26 23 23 22 19 18 16 15 15
9 8 6 9 8 13 24 21 20 20 22 25 22 22 25 17 14 12 18 20 20 17 14 11 9 13 16 21 21 20 20 19 23 30 24 23 29 25 22 21 20 19 18 18
6 10 8 0 8 10 19 26 17 18 16 17 19 30 30 21 17 16 18 19 19 16 14 12 11 8 8 17 18 19 20 17 16 21 15 26 26 27 26 23 21 21 21 21
5 7 5 8 8 6 9 22 22 18 16 11 15 26 32 28 22 18 15 14 17 16 12 10 9 8 7 6 7 14 19 18 15 18 26 28 25 19 22 25 25 22 22 23
6 10 5 14 7 6 10 5 7 8 6 14 22 18 23 23 19 18 15 15 17 16 13 12 11 10 9 8 7 8 7 9 19 24 28 32 28 25 16 22 27 24 24 25
8 8 12 13 11 11 18 10 10 14 12 8 16 23 19 19 17 18 17 16 17 18 17 16 14 13 12 11 11 11 10 10 10 12 17 24 30 30 30 27 27 27 28 29
11 11 14 20 20 17 12 16 16 12 12 12 17 18 18 15 19 16 18 16 16 17 18 18 17 16 16 15 14 15 16 15 14 15 16 16 20 26 26 28 31 30 33 35
8 10 12 10 20 14 6 12 21 22 17 18 17 18 14 16 12 14 18 23 24 21 20 20 20 22 22 21 20 21 22 23 22 22 20 18 15 15 22 29 30 33 34 36
8 9 14 14 12 5 15 9 11 14 12 22 16 18 17 14 18 25 29 28 23 23 25 24 24 25 26 26 26 26 26 27 26 25 23 21 21 21 20 18 24 35 38 38
6 7 10 14 15 11 10 8 8 14 19 22 24 22 18 24 29 26 27 27 27 26 26 27 27 26 27 27 28 28 29 29 28 28 27 27 26 26 25 23 23 21 28 39
4 2 8 2 3 7 7 7 13 14 18 19 25 26 20 20 22 19 24 26 27 28 27 25 24 24 25 25 25 27 28 29 31 33 33 33 32 31 30 29 27 27 26 26
9 10 9 3 5 6 7 9 9 8 14 17 15 16 15 17 20 21 19 21 20 23 23 22 21 20 19 18 17 17 18 22 27 31 34 36 37 37 35 34 31 32 30 29
9 6 9 12 7 5 8 8 9 12 14 12 14 14 15 16 19 20 18 17 17 17 17 18 18 18 19 19 19 19 19 19 20 22 25 31 37 40 41 40 38 37 35 33
7 10 11 10 9 15 11 13 14 14 13 12 11 13 14 15 18 18 16 14 14 15 15 16 17 18 20 21 21 23 23 23 25 26 25 27 30 37 44 47 47 44 42 41

GFSCGP_700_spd_102.txt.gz
Wind_Speed
26 27 29 30 23 19 11 5 8 9 12 14 4 10 22 27 37 36 36 33 34 32 30 25 21 16 13 13 11 9 14 11 9 8 10 9 13 9 10 8 10 10 11 10
19 24 24 23 24 20 14 10 7 11 10 6 14 15 20 32 36 35 37 35 33 31 31 26 23 18 14 13 12 14 14 12 11 11 10 12 14 12 10 10 10 9 10 11
20 12 11 20 26 21 15 15 14 13 14 9 10 8 15 25 29 35 36 34 33 34 32 26 22 16 12 14 13 12 15 12 12 10 8 11 14 11 9 9 10 9 9 12
20 16 14 17 19 16 18 10 16 18 23 13 19 8 14 22 29 36 36 36 36 34 29 24 20 14 10 9 13 13 15 15 11 10 9 11 13 11 11 11 12 11 10 11
16 17 16 16 17 13 18 10 13 18 28 19 15 5 7 23 23 36 39 38 36 35 31 25 22 17 12 9 11 15 16 17 13 11 11 16 10 12 13 9 9 10 8 8
22 13 15 13 11 14 12 13 10 19 16 8 20 14 11 28 37 31 39 40 38 35 32 27 24 20 14 12 9 15 16 17 15 12 12 16 15 12 9 9 7 6 7 7
20 21 16 18 15 16 20 10 8 4 4 8 20 18 15 15 31 25 26 37 40 37 33 33 31 23 17 11 9 10 14 18 17 13 14 16 15 12 13 9 9 6 6 5
6 10 16 13 17 13 12 13 6 5 5 2 13 11 11 20 19 27 25 28 29 35 38 33 31 26 17 11 7 6 3 18 18 16 15 17 15 13 14 12 10 8 7 7
4 8 13 16 14 16 15 10 10 9 14 3 10 8 13 25 27 31 25 29 28 30 21 34 34 31 25 22 17 10 5 12 16 15 16 16 18 16 15 11 14 12 9 9
10 11 13 12 18 17 20 14 4 7 1 3 5 7 10 24 31 35 33 31 30 31 28 27 31 34 32 31 24 20 17 12 13 13 15 17 16 17 17 16 14 14 13 12
12 12 10 12 17 19 13 9 5 5 3 4 4 4 3 22 27 31 35 33 37 33 27 34 34 35 34 31 24 31 24 22 18 15 15 15 15 16 17 16 16 14 15 17
9 4 4 8 9 11 14 11 6 4 2 4 6 5 17 23 21 22 25 31 34 44 27 33 32 30 27 35 29 38 34 27 23 23 21 20 17 16 16 15 14 11 13 15
5 6 3 4 7 3 11 11 9 5 4 8 5 9 18 20 26 18 16 21 17 20 24 25 27 26 22 26 1 13 25 29 36 30 29 28 26 23 19 17 16 13 12 13
3 10 12 6 5 8 2 9 9 8 2 6 6 28 25 21 18 10 12 4 5 10 18 23 27 25 20 17 12 10 13 29 29 31 29 30 29 29 26 23 22 19 15 14
4 6 7 10 6 3 4 6 15 12 6 8 16 22 26 20 15 15 26 19 16 13 14 15 19 20 23 23 21 12 10 16 16 9 3 18 25 33 32 31 27 25 21 20
2 12 6 4 10 5 8 9 6 12 15 9 23 23 25 20 17 18 17 15 12 12 15 15 14 13 12 18 17 14 13 14 11 4 2 5 9 6 35 36 30 29 25 23
7 4 11 4 7 8 5 16 9 15 15 13 25 28 29 22 20 18 15 13 16 16 20 19 17 15 14 12 11 11 10 10 11 12 10 9 5 7 5 11 24 26 25 25
4 3 3 6 6 2 8 8 4 17 13 13 18 29 29 28 24 20 16 14 18 19 20 19 16 13 12 13 12 9 8 7 6 6 10 13 16 16 15 14 12 25 27 24
7 6 2 2 9 5 6 4 12 5 10 10 18 34 31 26 25 21 18 13 14 16 16 16 15 11 9 9 8 9 9 8 8 8 8 9 11 11 17 19 18 24 22 19
6 7 9 3 3 3 11 10 6 7 11 17 17 24 28 32 27 23 17 10 14 17 16 15 14 13 12 11 11 10 10 11 11 11 11 11 11 12 15 16 23 29 33 33
2 3 4 8 3 4 11 8 10 15 14 14 19 19 24 23 20 19 19 17 13 11 14 15 16 16 16 16 17 18 18 18 18 17 17 17 17 18 20 21 20 19 19 24
2 2 1 5 6 5 9 9 17 16 16 19 22 23 24 22 20 18 17 19 18 23 21 18 18 18 18 18 18 20 22 22 24 24 23 23 24 24 23 26 27 26 25 23
3 1 3 1 3 2 2 6 8 8 12 23 28 25 23 24 23 23 24 24 24 25 25 26 26 25 24 23 24 24 23 24 26 27 28 28 26 26 27 27 28 28 28 29
4 1 4 5 5 7 8 8 8 11 17 27 28 27 27 25 26 26 25 25 25 24 24 25 26 26 27 27 26 24 22 23 24 25 26 28 29 30 30 31 31 31 31 31
9 11 11 13 11 10 11 14 16 13 14 17 20 23 26 28 29 30 32 30 26 20 18 19 21 21 22 21 21 20 19 20 20 18 18 18 18 20 24 27 30 31 33 32
13 13 15 14 13 14 12 11 16 17 17 18 20 23 26 28 30 33 34 28 22 21 20 19 20 21 20 18 18 18 18 17 17 17 17 17 17 18 19 20 21 23 24 25

GFSCGP_700_spd_105.txt.gz
Wind_Speed
29 27 31 29 20 15 7 6 7 9 12 14 16 15 19 24 35 37 40 36 31 25 19 16 13 10 7 7 10 11 10 10 13 8 7 8 13 9 8 6 8 8 11 12
27 28 29 24 20 18 11 3 4 10 8 0 8 12 21 29 37 37 40 37 32 26 25 22 19 14 10 9 10 9 12 8 10 9 10 9 8 10 8 7 7 8 9 11
30 18 25 27 22 22 14 8 7 7 15 12 4 14 26 24 36 36 36 35 33 31 28 26 23 15 10 10 10 8 10 8 11 10 9 8 10 8 8 6 5 7 9 10
25 24 11 20 23 24 18 12 7 14 18 12 8 7 23 24 34 40 35 34 35 32 27 25 21 14 6 5 9 10 11 10 10 9 9 10 10 9 8 5 5 6 7 10
14 16 16 15 21 20 18 8 9 15 24 17 16 8 12 28 22 33 37 36 35 31 28 24 22 10 4 2 5 10 13 13 11 9 9 12 12 8 8 8 5 5 6 9
21 15 12 15 15 15 10 4 3 16 19 7 18 19 13 29 30 18 40 40 38 35 33 29 21 15 9 8 5 10 15 15 12 10 9 11 9 11 10 9 8 6 6 6
19 20 17 17 15 15 16 14 7 3 3 6 10 17 6 19 23 9 34 43 41 37 38 37 30 23 16 9 6 12 14 16 13 11 10 11 10 12 11 11 9 7 6 5
5 7 19 17 17 11 13 19 8 6 5 4 5 9 9 15 24 20 27 39 38 40 38 38 24 26 22 10 7 8 7 13 14 12 11 13 12 13 11 11 9 9 7 7
2 6 11 13 10 15 11 16 15 4 6 5 8 7 9 13 20 36 25 37 38 40 36 36 31 31 31 18 15 13 8 4 13 14 13 12 15 17 12 13 12 11 8 8
8 6 6 12 16 14 16 14 10 8 5 3 1 3 3 13 26 31 29 30 37 37 36 21 17 25 24 25 20 15 15 13 14 16 16 15 14 17 15 16 11 13 11 9
16 10 4 9 13 17 13 15 7 8 4 6 3 2 4 16 23 29 33 34 34 31 30 34 17 19 29 26 24 21 17 17 17 20 19 19 19 17 18 17 16 12 13 12
12 8 10 5 6 12 12 15 14 7 4 7 7 4 9 16 21 24 29 27 26 27 27 28 25 24 26 26 33 12 23 27 24 23 22 20 22 22 21 19 17 15 15 16
7 4 6 8 8 10 11 13 12 13 10 10 8 6 12 15 17 20 21 25 24 22 28 27 23 24 23 21 20 20 36 38 34 30 25 23 22 22 21 20 18 17 16 15
6 8 7 9 4 7 3 6 10 9 9 12 10 19 20 16 15 14 16 11 13 15 23 29 21 22 25 23 21 26 15 21 34 31 30 26 25 25 24 23 21 21 19 18
7 10 15 16 9 4 4 4 9 11 8 11 15 18 21 19 19 20 17 17 2 10 16 21 23 26 25 27 19 22 15 16 16 30 24 26 30 31 30 28 27 25 22 21
7 8 5 6 5 8 6 4 6 12 15 16 21 25 21 23 21 21 17 20 12 19 17 17 20 26 26 25 24 22 14 10 11 10 5 2 10 41 29 32 31 28 27 25
5 10 9 4 7 8 4 10 4 12 18 18 29 20 26 26 22 20 14 14 15 13 12 17 20 23 23 22 25 19 16 15 20 10 12 12 9 11 23 16 37 36 29 28
4 4 1 3 3 4 4 6 7 5 14 22 20 20 23 24 22 17 14 8 7 4 8 15 16 16 14 15 16 14 12 13 14 12 11 11 12 12 10 7 6 36 36 31
3 1 1 1 6 9 4 8 5 2 6 6 11 25 26 24 20 21 18 17 13 11 11 13 15 16 16 15 15 13 11 12 14 13 12 14 16 15 17 16 16 11 25 35
6 6 5 3 2 4 28 6 5 10 9 14 15 13 24 27 25 24 20 15 13 14 17 16 12 13 14 13 13 12 12 10 9 9 9 9 10 12 14 17 23 22 20 33
5 3 6 8 3 3 9 24 26 17 9 9 12 12 17 14 16 15 21 14 8 10 12 11 11 12 11 13 14 15 15 15 15 15 15 15 15 16 17 17 17 20 23 30
3 3 4 6 5 4 14 14 21 17 15 19 19 18 18 16 18 15 13 11 7 2 9 11 9 12 16 19 20 19 19 20 20 21 21 22 22 23 23 24 25 26 26 26
3 3 3 3 7 7 5 10 14 17 16 16 22 19 23 18 17 15 12 12 15 14 11 13 15 19 22 25 25 25 25 25 25 25 27 28 28 29 29 30 31 32 31 30
7 7 6 7 8 6 7 6 6 7 10 16 20 23 23 20 20 16 15 15 15 14 17 21 22 25 26 24 24 26 27 29 29 29 30 31 32 32 33 33 34 34 34 33
8 10 8 8 8 9 7 7 8 4 5 10 18 19 23 21 20 20 19 18 20 23 23 25 24 23 23 22 22 22 23 23 24 25 27 27 27 28 28 31 34 36 37 36
13 13 12 11 11 12 10 10 10 12 13 11 11 13 16 17 18 19 21 22 23 24 25 24 25 25 25 24 23 21 22 22 21 21 22 22 22 22 21 20 20 21 23 24

GFSCGP_700_spd_108.txt.gz
Wind_Speed
32 31 33 25 15 14 9 10 13 10 9 7 6 18 8 24 34 31 27 26 22 19 17 11 13 8 1 1 3 4 5 8 10 9 7 9 9 10 10 9 9 10 10 9
32 32 26 16 16 14 7 10 10 8 8 10 9 7 13 27 33 35 30 27 24 22 18 16 13 10 2 2 4 5 7 8 10 11 10 11 9 8 8 8 9 9 10 12
34 24 23 14 17 15 12 7 11 11 14 12 11 1 15 24 34 35 34 31 25 23 20 18 15 12 5 3 5 5 8 9 9 9 11 10 8 7 8 8 6 7 9 12
25 12 24 22 19 17 17 11 7 8 14 10 11 6 7 19 28 37 36 35 30 29 22 19 15 15 4 4 8 8 9 9 9 8 9 9 10 8 7 8 6 6 8 10
18 24 13 19 23 20 17 12 7 6 14 7 15 4 15 22 22 38 39 39 35 28 23 22 17 9 6 5 4 8 10 9 8 7 7 10 10 8 7 7 6 4 7 10
18 13 17 15 16 20 13 12 10 11 15 6 19 16 10 29 23 10 30 38 37 29 24 21 15 15 9 7 4 7 10 9 8 7 7 8 10 8 8 7 6 5 5 6
22 22 18 14 13 16 17 14 7 3 4 7 6 15 15 13 21 16 15 37 31 28 27 28 24 21 17 11 6 5 9 11 9 9 7 7 11 8 10 9 8 7 6 6
11 10 22 17 20 13 16 19 8 5 5 4 8 9 8 17 20 26 21 33 28 29 32 29 26 24 22 20 14 6 8 10 10 10 8 7 10 10 11 11 9 8 7 8
10 8 15 13 19 17 15 25 17 7 6 4 5 7 8 14 18 28 25 24 37 29 26 29 28 29 30 27 17 11 7 7 10 13 13 10 11 10 10 11 10 9 8 8
5 5 9 18 17 17 14 19 17 10 5 3 2 4 7 11 18 27 26 20 36 35 31 31 30 30 31 30 21 22 15 11 11 15 17 14 12 14 15 11 12 11 11 9
16 9 5 14 14 19 23 21 14 15 5 6 4 4 12 12 22 25 30 25 26 33 33 30 8 19 24 22 29 26 22 18 15 13 20 20 18 17 17 16 14 10 12 11
13 7 8 1 7 17 18 20 16 12 6 4 4 4 9 12 18 23 24 27 27 31 27 30 29 10 10 18 21 25 24 26 22 18 20 22 22 22 21 21 20 18 14 14
11 7 6 7 8 15 15 18 17 15 13 12 6 5 13 14 15 16 20 26 27 24 24 22 22 24 23 19 26 27 24 30 25 22 21 26 25 24 24 23 20 19 17 17
5 4 7 8 7 7 7 13 15 14 13 10 7 14 17 17 18 16 14 16 21 24 18 23 23 20 22 20 20 15 12 18 23 30 32 27 26 25 25 23 21 20 18 17
6 11 15 16 11 9 6 7 13 13 13 15 13 10 16 19 19 14 13 13 12 12 12 16 23 22 16 21 22 20 20 22 13 17 35 32 27 24 23 24 22 21 21 20
7 4 9 17 14 8 9 4 9 12 14 11 12 19 17 16 19 20 21 18 15 14 13 12 12 19 23 25 22 24 18 22 16 9 23 33 26 26 21 27 26 24 25 24
8 7 7 3 9 10 9 9 5 10 15 15 17 20 20 21 22 22 20 17 15 16 13 15 15 19 16 21 21 20 19 19 11 6 5 13 27 17 27 32 32 25 24 32
7 14 13 2 4 2 7 22 9 3 11 18 18 22 26 21 22 22 18 17 18 17 13 13 15 19 18 17 22 25 22 19 17 11 12 15 12 8 4 14 15 18 31 30
5 4 6 6 3 5 8 4 6 3 7 15 16 15 23 24 24 23 23 23 19 17 14 12 11 13 13 15 16 17 18 19 21 20 18 20 15 13 11 15 22 13 5 11
7 4 4 9 6 8 9 8 7 5 3 6 15 11 26 26 26 27 26 23 16 13 15 16 15 13 12 13 15 16 17 18 20 19 19 18 19 19 20 21 22 23 22 13
2 5 7 9 5 4 8 15 10 8 2 6 3 3 15 20 20 16 16 17 16 15 15 11 12 16 16 14 12 12 13 14 15 16 16 16 16 16 15 15 15 15 16 18
2 3 4 5 5 4 8 11 12 9 14 16 7 9 9 11 12 11 16 18 14 15 14 13 12 12 11 11 13 15 15 15 15 16 17 17 18 18 19 19 19 19 19 18
4 4 3 2 4 5 5 14 13 17 15 11 19 16 16 15 14 13 11 18 16 14 12 12 12 11 11 13 15 16 18 20 21 22 24 24 25 25 26 25 25 25 25 26
5 6 6 7 7 6 6 6 11 15 16 15 13 18 20 20 18 16 15 16 17 13 12 9 10 13 16 16 18 21 24 27 28 27 28 29 29 30 31 30 31 31 31 32
6 7 8 10 9 8 7 7 8 9 9 9 14 15 21 22 24 21 12 12 15 11 12 13 16 18 18 20 20 20 20 21 26 30 30 31 31 30 30 31 32 34 36 36
11 11 13 13 10 9 9 10 10 10 8 6 4 10 14 22 24 22 21 18 16 16 18 20 22 23 23 23 25 25 25 25 24 24 26 28 27 28 28 27 26 26 27 28

GFSCGP_700_spd_111.txt.gz
Wind_Speed
27 30 30 25 16 9 10 10 12 11 15 9 11 10 8 15 27 31 31 31 28 23 21 20 16 10 9 9 8 9 8 8 9 8 7 8 9 10 11 12 12 11 12 12
24 31 28 20 16 11 8 13 11 13 13 13 10 6 3 17 28 31 31 29 26 26 24 20 17 13 9 7 8 9 9 9 9 8 9 12 11 9 9 10 11 10 11 11
24 14 25 20 19 15 11 9 15 12 13 9 10 1 8 17 28 28 31 28 27 24 21 20 18 14 7 6 8 8 11 10 10 8 8 10 8 9 9 9 8 9 9 11
18 8 25 21 21 17 12 9 7 14 13 9 8 4 4 15 24 31 30 32 29 28 23 18 17 14 8 6 9 9 11 10 10 9 9 9 10 10 9 9 8 8 9 10
12 21 24 21 20 18 11 10 8 13 8 10 10 7 15 12 19 28 33 32 30 28 26 24 18 11 9 7 9 10 11 10 10 10 11 10 9 8 8 8 8 6 8 9
10 21 17 14 20 19 13 15 13 14 8 5 11 9 12 27 7 25 30 33 31 30 27 24 19 17 14 10 7 8 10 10 10 10 9 10 10 7 7 7 8 7 7 8
17 14 19 15 14 19 20 18 6 4 5 3 5 12 8 6 22 14 26 28 30 30 29 26 23 20 16 13 8 6 8 9 10 10 9 9 11 7 8 8 9 9 8 7
18 16 18 16 16 14 21 21 11 6 6 6 6 9 7 15 15 24 21 24 32 31 30 28 24 21 24 19 16 8 7 10 11 11 10 9 12 10 8 8 8 9 9 7
15 12 12 22 19 19 27 20 11 4 6 7 7 8 8 11 10 20 29 22 31 35 31 30 30 25 22 18 17 14 12 12 10 12 12 11 11 13 13 12 11 9 9 8
4 7 10 24 20 25 16 23 16 8 7 8 6 6 7 14 19 22 23 23 29 33 30 31 30 26 22 26 28 19 18 16 13 11 13 15 14 15 16 13 14 12 10 9
14 7 5 24 21 24 24 12 18 14 5 7 5 6 17 13 17 21 27 22 24 29 28 27 28 27 27 29 30 28 23 19 16 12 11 16 16 16 17 16 14 13 12 13
10 7 7 7 14 23 23 18 19 19 10 5 3 4 17 19 15 21 24 25 22 33 32 30 24 22 20 30 22 31 26 25 21 17 13 15 17 18 18 17 18 14 11 13
13 8 4 5 7 16 19 23 23 14 19 11 9 6 12 14 12 22 22 27 25 19 27 29 25 20 19 14 21 29 32 30 25 21 19 17 20 20 21 21 20 18 17 17
12 7 8 6 8 10 11 19 20 16 14 11 12 12 7 15 12 18 22 20 21 20 26 23 25 23 23 22 19 21 30 28 26 24 21 19 22 24 23 24 23 21 18 18
5 6 11 14 11 9 12 17 19 17 12 13 13 13 16 14 15 15 15 16 18 18 21 22 24 21 18 19 19 18 20 11 17 23 24 29 32 27 23 23 24 23 19 17
8 7 12 12 12 12 8 7 13 15 16 14 14 14 10 15 15 17 17 18 18 20 23 24 25 28 24 18 17 18 14 18 18 27 26 19 28 28 23 21 21 22 20 19
15 5 5 2 3 6 4 4 4 6 13 13 12 16 17 16 18 18 18 20 20 20 20 19 19 22 21 16 19 14 20 21 17 20 17 21 23 28 21 22 22 22 24 22
11 12 10 4 8 4 4 8 8 6 7 15 17 17 20 25 24 21 21 21 20 20 17 17 18 18 22 23 27 29 26 23 17 10 7 8 18 24 21 29 27 30 25 17
5 6 7 9 11 3 4 3 6 6 11 11 13 18 17 22 19 22 24 23 21 18 18 17 17 13 13 14 16 21 25 21 19 20 17 11 16 18 14 7 18 20 23 19
4 2 1 8 8 6 8 10 8 7 2 10 16 15 14 23 24 25 25 23 22 20 18 14 14 15 17 17 15 16 17 23 23 27 23 19 17 17 13 10 11 15 19 15
7 9 7 7 3 2 7 15 13 3 3 6 6 5 11 18 20 20 20 26 21 15 14 16 14 15 18 17 19 19 16 15 20 25 25 21 21 20 20 20 18 19 21 23
4 4 5 9 6 4 7 7 6 8 10 8 3 3 3 12 15 12 12 17 19 17 17 17 15 12 10 9 11 15 15 16 17 19 21 20 20 20 20 19 18 20 22 21
5 5 5 6 6 6 2 6 7 9 14 10 12 10 6 10 12 8 12 19 19 20 18 17 16 13 11 9 8 8 11 13 16 18 19 20 21 21 21 22 22 23 22 22
6 6 6 5 5 4 5 5 8 11 12 11 14 12 20 18 16 10 15 19 21 23 20 18 15 13 11 11 11 14 15 16 18 19 20 22 24 24 25 26 27 28 28 28
6 6 8 11 11 10 10 9 10 13 11 9 13 13 17 21 18 16 16 23 24 20 17 16 15 13 12 12 12 13 15 17 19 22 23 25 27 29 30 31 32 32 33 34
10 11 10 10 9 9 11 12 13 12 11 9 6 11 17 19 21 23 19 19 22 22 23 21 18 17 17 16 16 16 16 18 20 21 21 23 24 26 27 28 30 30 29 30

GFSCGP_700_spd_114.txt.gz
Wind_Speed
21 19 27 22 17 6 8 10 9 11 20 18 15 11 11 22 37 30 27 26 23 22 19 19 19 17 13 12 14 14 13 11 11 12 10 10 12 11 9 12 11 10 8 11
17 22 20 19 15 8 9 10 10 9 15 11 15 6 10 17 40 31 28 27 24 22 21 19 18 15 13 11 11 14 14 13 11 10 10 12 12 11 10 10 10 8 9 10
18 13 19 19 16 12 9 12 13 9 14 7 12 4 10 18 37 28 27 25 25 22 21 20 18 15 12 11 11 12 14 13 12 10 11 11 9 11 11 10 9 9 9 10
16 11 20 19 18 15 12 6 10 12 14 7 14 4 9 24 30 32 28 27 27 25 23 21 19 15 11 11 11 12 13 14 11 11 12 10 10 10 9 9 9 9 10 10
13 17 19 22 20 15 6 9 9 13 5 9 9 5 7 16 23 30 31 29 27 25 25 22 19 15 12 9 11 11 14 13 13 11 10 11 10 8 9 8 8 8 9 10
6 15 15 20 18 16 9 11 10 8 6 10 11 9 15 24 22 23 31 33 30 27 28 24 21 18 15 12 13 12 13 12 13 13 12 12 12 11 9 8 8 9 9 10
11 14 15 19 20 17 16 18 11 9 8 4 8 10 6 19 21 12 21 28 31 28 28 27 25 21 18 15 12 12 13 13 13 13 13 12 13 11 10 11 9 9 9 10
20 18 20 15 20 22 23 25 14 10 10 11 6 8 5 15 21 20 18 25 33 29 28 29 27 22 22 17 14 12 14 15 16 15 14 13 13 10 11 11 11 10 8 8
18 16 18 16 18 18 24 28 22 18 10 14 12 9 8 12 18 21 21 29 34 30 30 31 28 23 21 22 19 14 13 16 17 18 16 14 14 14 11 13 13 12 10 8
6 15 15 20 18 20 18 25 22 16 10 12 10 13 4 11 12 23 23 22 31 33 33 31 29 30 27 24 23 19 15 16 18 18 17 15 15 17 14 13 13 11 12 10
8 11 17 18 25 23 23 22 27 22 23 10 10 12 11 9 16 20 23 23 24 32 35 36 34 31 28 21 23 24 19 18 18 18 16 16 15 15 15 16 14 12 11 10
12 11 11 22 18 21 25 23 25 22 15 19 14 5 13 15 18 21 24 25 25 28 32 36 34 32 28 27 28 31 28 25 22 20 17 16 17 17 17 17 15 12 12 11
11 12 14 11 14 19 21 25 24 28 25 22 16 8 8 13 17 19 23 28 18 26 36 34 33 33 30 30 31 29 29 30 29 25 20 17 17 18 18 18 16 16 14 11
12 8 15 7 21 22 23 20 23 19 24 22 19 7 3 9 14 20 23 27 27 23 30 33 33 29 27 26 28 31 28 33 29 30 24 22 18 17 19 19 19 18 16 16
5 6 7 2 5 11 16 21 21 21 23 18 14 20 12 12 10 12 19 25 31 28 26 30 28 25 28 20 26 15 22 24 32 33 29 25 22 16 19 21 22 20 19 18
5 2 8 6 5 8 9 10 15 15 14 15 11 4 9 14 15 13 16 19 22 27 27 30 29 26 25 24 19 13 16 21 21 26 34 25 28 26 22 27 23 21 20 19
4 1 5 11 5 10 11 6 6 7 7 11 15 9 16 15 11 17 18 17 18 23 26 27 29 28 26 21 18 16 14 16 18 17 19 24 26 28 31 28 23 19 18 19
9 14 4 7 3 11 2 3 2 3 3 9 10 12 12 17 15 18 16 15 15 18 21 27 28 29 27 27 23 18 13 19 18 17 17 20 26 23 22 26 22 21 21 22
7 6 8 7 15 5 1 2 3 1 1 2 3 12 15 13 15 16 17 19 21 21 20 21 23 24 25 28 27 26 27 23 22 19 18 14 14 14 24 18 16 22 23 25
4 6 6 10 5 7 2 5 5 4 6 7 9 9 11 11 11 20 21 25 26 25 23 22 22 23 25 27 29 28 29 31 26 24 22 16 10 13 15 13 9 10 19 23
6 6 8 6 8 5 7 9 8 4 3 5 2 5 9 9 17 23 22 21 21 22 22 22 19 17 18 20 19 17 19 20 28 29 27 25 19 17 16 14 14 11 10 13
5 6 7 6 8 6 5 2 6 7 7 6 2 5 6 15 19 17 14 15 16 19 19 19 18 18 19 20 21 24 21 19 18 26 31 27 22 21 21 19 17 17 17 17
4 7 5 5 2 6 3 6 8 11 11 12 9 6 4 5 13 13 12 14 15 19 21 20 21 20 16 15 13 12 13 16 16 16 18 29 25 20 19 19 17 16 17 17
10 9 5 5 5 6 6 5 5 7 11 10 12 16 14 12 9 9 9 16 21 22 21 20 20 19 19 17 15 14 13 13 12 13 14 16 17 19 19 20 20 21 22 22
8 8 8 8 8 9 9 9 9 9 10 10 9 12 15 15 16 14 13 15 21 22 22 22 21 20 18 16 15 12 13 14 15 17 18 19 20 22 23 24 24 24 25 27
9 7 6 6 10 8 13 13 15 15 12 10 10 10 13 14 17 17 17 18 24 22 22 22 23 23 21 16 15 13 12 13 14 15 17 19 20 22 24 26 27 28 27 28

GFSCGP_700_spd_117.txt.gz
Wind_Speed
16 18 25 20 21 7 9 14 18 14 15 24 22 17 25 27 32 26 24 23 21 19 18 18 16 14 14 14 16 17 14 12 14 13 11 9 9 8 11 11 12 11 9 10
14 22 19 19 17 15 11 5 12 14 20 12 10 19 26 29 23 32 27 27 24 22 21 19 19 15 13 13 15 15 15 12 13 15 14 12 8 9 9 7 9 9 10 10
17 13 19 21 19 16 15 10 16 15 16 15 9 14 23 23 35 37 27 27 25 26 22 23 19 18 15 13 15 16 16 14 13 13 14 15 13 10 10 10 8 8 8 9
19 13 18 21 21 18 18 12 11 21 27 14 21 6 19 23 39 37 38 29 26 25 26 16 18 17 15 13 13 15 16 15 13 11 15 12 11 10 7 6 5 7 8 8
17 15 18 21 21 18 9 12 9 26 18 5 19 8 9 22 40 38 32 32 23 27 17 22 19 17 17 15 12 13 14 15 15 14 12 11 11 9 9 8 9 7 9 10
15 16 16 19 20 17 8 10 8 7 8 16 19 11 16 31 40 36 30 29 29 22 23 25 18 21 19 16 15 13 14 15 15 15 14 13 14 13 12 8 8 8 9 9
16 12 17 18 22 17 16 14 8 8 9 3 19 12 8 23 28 30 30 31 30 27 26 25 19 26 23 21 17 16 14 14 15 15 15 13 12 11 9 8 8 6 8 9
21 15 20 19 23 20 21 19 11 9 10 11 10 7 13 18 22 27 24 34 33 32 28 27 25 25 17 27 20 18 15 15 15 14 14 15 15 12 10 11 9 8 8 8
19 21 20 19 19 22 22 26 22 17 21 5 12 10 13 17 19 23 26 32 34 37 30 29 26 29 23 21 21 18 15 16 16 16 13 13 16 14 14 14 11 10 9 7
8 17 20 22 18 21 21 23 24 21 19 15 15 15 18 20 26 23 25 29 34 34 35 29 31 31 30 26 21 18 13 14 17 17 16 15 14 15 13 13 13 12 10 9
11 13 17 17 26 25 23 19 28 25 27 7 8 4 10 19 20 23 25 30 32 44 41 33 30 24 36 27 28 22 17 13 15 18 17 17 16 16 17 15 13 13 10 11
17 9 20 24 20 23 23 24 21 25 26 25 9 11 4 7 13 18 24 24 24 32 42 30 36 37 26 24 23 25 21 20 16 17 18 19 19 17 16 17 15 13 11 12
12 17 19 11 21 22 27 24 26 27 25 24 17 4 8 3 14 16 19 24 21 26 30 34 38 34 34 30 26 24 28 27 26 20 21 22 19 19 18 18 17 16 14 13
14 16 18 9 10 19 24 24 26 25 27 27 21 18 16 16 15 25 29 28 16 26 30 34 43 44 33 30 26 26 25 31 30 31 25 24 21 19 19 19 17 17 17 17
13 20 16 8 18 17 24 26 23 26 26 26 9 3 18 20 8 7 17 23 23 23 26 32 33 37 32 25 20 30 29 26 30 33 33 28 23 21 19 19 19 19 20 19
9 12 14 7 8 10 17 23 22 22 25 21 6 19 11 23 17 5 4 23 32 36 31 31 31 35 35 22 21 23 32 26 24 27 31 29 28 23 22 20 19 22 22 22
5 7 9 14 11 11 10 9 14 15 19 13 7 16 15 8 2 2 9 15 19 29 27 26 33 36 38 29 25 24 22 20 10 17 28 27 32 28 27 30 26 23 26 24
7 11 6 3 12 17 8 5 1 2 8 10 6 6 9 3 7 7 10 14 17 19 21 25 27 30 30 27 25 23 21 19 17 22 19 18 19 35 29 29 28 27 28 23
9 8 10 8 10 7 11 8 2 3 6 5 7 4 5 5 9 12 11 14 16 19 23 24 25 30 30 26 26 23 19 13 18 17 18 18 18 22 28 30 27 30 24 24
7 9 16 5 14 3 8 5 4 5 15 14 3 4 4 12 5 15 13 15 18 20 22 23 25 27 25 26 28 27 26 21 23 23 22 20 18 15 9 13 17 13 14 19
10 10 13 3 8 4 4 12 6 12 4 5 4 2 6 7 16 15 12 17 18 17 16 18 20 22 22 23 23 24 26 28 30 32 27 24 18 11 11 11 5 6 6 5
2 5 11 9 11 4 2 3 5 3 2 1 2 1 12 16 13 14 15 16 18 16 16 18 22 25 24 25 22 21 21 22 25 28 30 28 26 19 16 14 13 13 11 10
5 4 4 4 1 4 5 8 6 1 2 7 3 1 11 7 11 15 16 14 16 17 18 18 19 22 22 22 23 20 19 21 24 24 24 29 27 26 22 18 19 17 14 13
8 8 7 5 6 3 1 5 5 9 9 10 10 5 7 10 7 7 12 12 16 18 18 18 22 22 21 23 22 24 22 21 18 20 20 22 28 28 23 20 20 19 17 16
5 5 8 9 5 4 4 5 6 9 10 10 9 12 7 12 13 11 12 11 15 18 19 21 22 21 20 18 16 14 15 15 14 14 14 14 15 20 21 19 20 18 19 21
8 7 7 3 8 9 8 14 12 10 8 14 13 12 12 13 13 14 16 15 15 17 20 22 23 22 21 19 17 15 15 16 15 16 18 18 18 20 22 23 22 22 24 25

GFSCGP_700_spd_123.txt.gz
Wind_Speed
16 15 20 22 14 16 10 8 9 10 5 17 24 20 30 29 26 21 23 28 23 23 19 18 15 11 10 12 10 15 14 15 16 15 14 14 14 17 19 16 12 13 12 11
11 17 12 9 10 13 18 10 13 12 7 9 19 22 31 34 30 28 23 26 23 23 22 19 16 13 11 11 10 7 12 15 16 16 13 16 18 14 17 16 13 10 11 8
14 7 8 13 17 17 12 9 18 8 22 13 9 27 27 33 30 34 32 30 25 26 23 22 16 15 12 13 13 12 14 14 16 16 13 11 14 15 17 17 15 10 9 9
17 13 16 14 17 16 24 17 20 17 25 9 13 5 27 37 35 38 35 36 34 31 27 23 20 18 13 8 15 15 14 14 14 14 14 11 11 12 15 17 15 14 12 9
15 12 12 15 17 14 14 17 20 17 13 9 14 4 11 29 40 45 42 37 35 34 27 28 23 20 13 8 7 18 17 15 16 13 13 16 11 14 12 12 14 14 14 13
19 14 14 9 12 13 14 11 15 16 6 7 11 15 14 30 39 51 50 43 39 39 33 28 26 22 19 11 7 16 15 13 14 14 14 14 14 12 10 11 13 10 10 10
11 15 14 14 15 10 9 17 6 1 3 5 9 16 19 14 27 35 52 47 40 37 35 30 22 20 23 11 13 12 16 15 14 13 15 13 10 10 8 8 11 11 9 11
14 13 13 14 14 16 18 17 13 5 2 7 7 11 18 20 24 21 46 44 46 38 39 33 22 28 20 18 11 7 14 17 18 16 15 12 12 12 13 10 8 11 11 11
10 14 15 17 19 20 22 23 14 3 10 5 13 8 7 14 11 19 32 48 50 48 33 38 24 28 25 21 13 13 14 16 17 16 17 15 15 13 12 12 9 8 12 12
19 12 13 5 16 18 23 15 17 20 8 4 14 8 5 7 11 13 26 47 43 40 38 34 30 29 23 21 16 12 15 17 16 17 17 15 15 14 10 10 9 10 7 7
4 11 18 13 18 17 22 18 18 15 15 4 3 6 10 4 10 14 29 42 41 40 35 36 32 36 32 29 22 18 16 17 18 17 16 17 16 15 13 11 11 10 8 7
10 10 16 16 9 16 17 19 18 18 14 17 6 8 15 15 12 14 30 39 37 33 35 41 35 39 39 34 26 23 15 17 14 16 17 17 17 15 15 13 12 13 13 10
12 4 10 14 6 6 16 18 18 21 22 23 9 7 17 21 11 7 13 35 31 34 27 27 43 38 32 37 32 25 21 23 20 14 17 16 17 15 14 15 16 16 14 13
9 14 11 7 14 17 16 7 20 21 23 23 21 9 17 17 10 11 19 33 30 41 40 34 37 32 37 39 35 27 23 21 21 18 17 18 18 18 17 17 17 18 18 18
11 16 14 14 13 13 17 11 18 26 24 22 14 7 15 18 17 17 20 34 36 38 41 41 42 36 33 35 31 26 25 25 22 14 22 22 23 24 19 17 18 19 19 20
8 9 12 10 9 10 9 13 23 12 10 11 8 12 18 16 15 13 22 16 40 39 32 35 37 35 34 30 31 22 29 32 22 18 24 24 21 12 28 29 24 18 21 21
4 8 8 1 7 6 2 14 17 4 3 2 7 6 5 3 8 16 19 24 27 30 31 34 39 41 40 26 16 22 22 18 21 19 19 21 16 17 22 31 27 25 21 23
8 9 8 7 5 1 6 4 11 20 19 11 13 12 11 9 6 8 13 16 7 13 23 25 34 34 41 30 18 18 21 23 17 15 16 19 23 18 20 25 18 22 23 23
6 13 9 3 4 8 4 3 9 18 19 15 12 15 17 16 7 8 9 12 16 18 14 17 23 24 27 28 21 25 24 21 20 20 18 19 21 15 16 21 22 28 28 27
12 5 10 6 4 1 3 2 7 7 19 11 10 9 6 8 8 8 8 10 17 13 12 18 19 17 14 18 21 24 32 23 20 18 18 17 15 12 11 15 17 19 27 34
12 4 9 14 4 5 11 3 8 5 2 5 8 6 8 8 4 3 5 3 7 11 13 16 14 17 15 18 18 17 7 11 22 17 19 16 14 15 12 14 15 19 21 25
7 4 6 4 2 5 10 5 5 11 7 9 3 7 6 0 5 2 4 7 6 8 10 7 6 8 12 14 15 16 20 20 24 19 24 20 22 19 17 11 12 8 6 6
7 3 2 1 5 13 5 11 16 9 8 2 4 4 4 5 5 2 8 10 10 12 10 8 9 11 11 10 11 14 16 18 19 21 25 28 25 25 24 21 16 15 13 11
4 2 2 12 12 8 3 5 4 5 5 6 1 2 2 5 4 2 1 3 7 9 9 9 9 11 11 12 13 15 16 19 19 19 19 23 23 23 25 21 22 24 21 15
4 1 1 7 16 11 9 6 5 4 5 3 5 7 3 7 7 6 6 7 5 4 5 9 11 12 11 10 9 11 16 12 16 17 20 22 22 23 22 24 26 28 22 19
5 6 5 7 12 6 10 9 8 8 6 3 6 3 2 5 9 6 7 8 9 9 9 7 7 8 9 9 10 11 13 11 16 18 16 19 20 26 25 22 22 27 26 24